Location: ????????
(60.4333°N, 46.4710°E)
Time: 19:29:06
(UTC+00:00)

ADEOS Rocket - Pass Details

Date: 25 November 2020
Orbit: 859 x 1306 km, 98.7° (Epoch: 17 January)

Event Time Altitude Azimuth Distance (km) Brightness Sun altitude
Rises 13:53:08 0° 17° (NNE) 4,132 5.9 -12.4°
Reaches altitude 10° 13:55:43 10° 19° (NNE) 3,211 5.3 -12.7°
Maximum altitude 14:03:16 77° 106° (ESE) 1,328 3.6 -13.5°
Drops below altitude 10° 14:11:05 10° 193° (SSW) 3,323 6.2 -14.5°
Sets 14:13:48 0° 194° (SSW) 4,283 6.8 -14.8°
